STARLINK-33988, 63938

Orbit data source: Space-Track

STARLINK-33988, 63938 is a payload satellite owned by SpaceX/Seattle (US) in LEO that was launched on Tue, 13 May 2025 UTC via an FALCON 9 launch vehicle from the Air Force Western Test Range (AFWTR). Payload-class satellites include a variety of spacecraft equipped with specific instruments for various scientific and technological missions. These include communications satellites like Starlink; space stations such as the ISS; scientific satellites like the Hubble; Earth observation satellites from companies like Planet Labs, Umbra, and HawkEye 360; GPS; miniature CubeSats for education and research; and military/defense satellites.

Loading next visibility...
Identifier
63938, 2025-098N
Orbit
LEO
Country
Flag of USUS
Related business
Manufacturer
SpaceX/Seattle
Mission
Operational Commercial Communications
Bus & Motor
STARLINK V2MO, Unknown motor
Mass
575 kg wet, ~530 kg dry
Launch date (UTC)
2025-05-13 (1 year ago)
Launch vehicle
FALCON 9
Launch site
Air Force Western Test Range (AFWTR)
Object type
Payload
Rocket body
Debris
Shape & HBR
Box + 2 Pan, 17.7 m
Radar Cross Section
36.964 m², Large (>1 m²)

Expand to show TLE details & history
Last TLE update: 1 day ago

TLE from 1 day ago
0 STARLINK-33988
1 63938U 25098N   26170.98582603  .00007834  00000-0  66323-3 0  9995
2 63938  70.0018  16.6051 0003254 265.9645  94.1142 14.98352194 61876
Epoch: 2026-06-19T23:39Z
TLE epoch observation values (Epoch: 2026-06-19T23:39:35.368Z)
Latitude
-0.00007°
Longitude
113.50077°
Altitude
574.574 km
Speed
7.574 km/s
True Right ascension
01h 06m 25s
True Declination
0° 00' 00"
Sunlit
Object was in daylight at epoch
Visualization orbit readout
Latitude
Unknown
Longitude
Unknown
Altitude
Unknown
Speed
Unknown
Apparent Right ascension
Unknown
Apparent Declination
Unknown
Sunlit
N/A
Visualization observer readout
Local Sidereal Time
10:20:18
Azimuth
Unknown
Elevation
Unknown
Doppler factor
Unknown
Orbital elements
Apogee altitude
572.196 km
Perigee altitude
567.674 km
Semi-major axis
6,948.072 km
Eccentricity
0.00033
Inclination
70.0018°
RAAN
16.6051°
Arg. of periapsis
265.9645°
True anomaly
94.15139°
Mean anomaly
94.1142°
Eccentric anomaly
94.1328°
Mean motion
3.74754 °/min
Orbital period
96.06 mins
BSTAR
0.00066323
Loading maneuver chart data...
Computing Atmospheric mass density...
Loading historical data...
Loading historical data...
Loading historical data...
Loading historical data...
Loading historical data...
Loading historical data...
Loading historical data...

Documentation

Showing up to 5 results
|